TimePST,TemperatureF,Dew PointF,Humidity,Sea Level PressureIn,VisibilityMPH,Wind Direction,Wind SpeedMPH,Gust SpeedMPH,PrecipitationIn,Events,Conditions,WindDirDegrees,DateUTC
12:55 AM,35.1,30.0,82,30.17,10.0,South,3.5,-,N/A,,Clear,170,2012-12-07 08:55:00
1:55 AM,33.1,30.0,89,30.17,10.0,Calm,Calm,-,N/A,,Partly Cloudy,0,2012-12-07 09:55:00
2:55 AM,33.1,30.0,89,30.16,10.0,Calm,Calm,-,N/A,,Clear,0,2012-12-07 10:55:00
3:55 AM,30.9,28.0,89,30.16,10.0,Calm,Calm,-,N/A,,Clear,0,2012-12-07 11:55:00
4:55 AM,30.0,27.0,88,30.17,10.0,Calm,Calm,-,N/A,,Clear,0,2012-12-07 12:55:00
5:55 AM,30.0,28.0,92,30.17,10.0,Calm,Calm,-,N/A,,Clear,0,2012-12-07 13:55:00
6:55 AM,30.0,27.0,88,30.18,10.0,Calm,Calm,-,N/A,,Scattered Clouds,0,2012-12-07 14:55:00
7:55 AM,30.9,28.0,89,30.18,10.0,Calm,Calm,-,N/A,,Mostly Cloudy,0,2012-12-07 15:55:00
8:55 AM,34.0,30.0,85,30.19,10.0,Calm,Calm,-,N/A,,Scattered Clouds,0,2012-12-07 16:55:00
9:55 AM,37.9,30.0,73,30.19,10.0,Calm,Calm,-,N/A,,Mostly Cloudy,0,2012-12-07 17:55:00
10:55 AM,43.0,30.9,62,30.16,10.0,Calm,Calm,-,N/A,,Mostly Cloudy,0,2012-12-07 18:55:00
11:55 AM,46.9,30.0,52,30.12,10.0,Calm,Calm,-,N/A,,Mostly Cloudy,0,2012-12-07 19:55:00
12:55 PM,48.9,30.0,48,30.10,10.0,Calm,Calm,-,N/A,,Mostly Cloudy,0,2012-12-07 20:55:00
1:55 PM,52.0,32.0,47,30.06,10.0,Calm,Calm,-,N/A,,Mostly Cloudy,0,2012-12-07 21:55:00
2:55 PM,54.0,30.9,41,30.05,10.0,Calm,Calm,-,N/A,,Mostly Cloudy,0,2012-12-07 22:55:00
3:55 PM,53.1,32.0,45,30.06,10.0,Calm,Calm,-,N/A,,Mostly Cloudy,0,2012-12-07 23:55:00
4:55 PM,50.0,32.0,50,30.06,10.0,Calm,Calm,-,N/A,,Mostly Cloudy,0,2012-12-08 00:55:00
5:55 PM,46.0,34.0,63,30.08,10.0,Calm,Calm,-,N/A,,Mostly Cloudy,0,2012-12-08 01:55:00
6:55 PM,45.0,33.1,63,30.08,10.0,Calm,Calm,-,N/A,,Mostly Cloudy,0,2012-12-08 02:55:00
7:55 PM,43.0,30.0,60,30.09,10.0,SW,3.5,-,N/A,,Scattered Clouds,230,2012-12-08 03:55:00
8:55 PM,39.9,26.1,58,30.09,10.0,South,3.5,-,N/A,,Scattered Clouds,180,2012-12-08 04:55:00
9:55 PM,37.0,25.0,62,30.09,10.0,NNE,3.5,-,N/A,,Scattered Clouds,20,2012-12-08 05:55:00
10:55 PM,37.9,24.1,57,30.09,10.0,Calm,Calm,-,N/A,,Scattered Clouds,0,2012-12-08 06:55:00
11:55 PM,33.1,24.1,70,30.08,10.0,South,3.5,-,N/A,,Clear,190,2012-12-08 07:55:00